Regional Weather Roundup
Issued by NWS Grand Forks, ND

Home | Current Version | Previous Version | Text Only | Print | Product List | Glossary On
Versions: 1 2 3 4 5 6 7 8 9 10 11 12 13 14 15 16 17 18 19 20 21 22 23 24 25 26 27 28 29 30 31 32 33 34 35 36 37 38 39 40 41 42 43 44 45 46 47 48 49 50
000
ASUS43 KFGF 232110
RWRFGF
PRAIRIE TO PINES  WEATHER ROUNDUP
NATIONAL WEATHER SERVICE EASTERN NORTH DAKOTA/GRAND FORKS ND
400 PM CDT MON OCT 23 2017

 **SATELLITE DATA USED TO AUGMENT SKY COVER AT AUTOMATED STATIONS**
 *****  WEATHER ACROSS EASTERN NORTH DAKOTA  *****

CITY           SKY/WX    TMP DP  RH WIND       PRES   REMARKS
GRAND FORKS    FAIR      55  30  38 N20G31    29.95R
GRAND FRKS AFB FAIR      54  24  31 N21G32    29.97R
DEVILS LAKE    CLOUDY    48  33  56 NW23G29   30.03R
FARGO          FAIR      56  31  38 NW23G37   29.95R
WAHPETON ARPT  NOT AVBL
$$

 ***** WEATHER ACROSS CENTRAL AND WESTERN NORTH DAKOTA  *****

CITY           SKY/WX    TMP DP  RH WIND       PRES   REMARKS
BISMARCK       CLOUDY    55  28  35 NW28G43   30.13R
MINOT          PTSUNNY   52  33  48 NW32G40   30.12R
JAMESTOWN      FAIR      54  35  48 NW30G45   30.01R
MINOT AFB      PTSUNNY   51  33  51 NW31G40   30.11R
GARRISON         N/A     55  29  36 NW38G52   30.13R
WILLISTON      LGT RAIN  57  26  30 NW30G39   30.25R
DICKINSON      FAIR      55  25  31 NW29G47   30.21R
HETTINGER      PTSUNNY   55  22  27 NW32G54   30.24R
$$

 *****  OTHER AIRPORT OBSERVATIONS IN OUR AREA  *****

CITY           SKY/WX    TMP DP  RH WIND       PRES   REMARKS
WALHALLA       FAIR     N/A N/A N/A N20G25    30.00R
GRAFTON AIRPOR FAIR      50  30  46 N23G29    30.00R
VALLEY CITY AR FAIR      52  34  50 NW29G39   30.00S
CANDO          CLOUDY    46  34  61 NW23G29   30.07R
CAVALIER APRT  FAIR      48  32  53 N24       29.99R
GWINNER        CLEAR     54  32  43 NW24G35   29.99S
SHEYENNE NWR     N/A     56  31  39 NW17      29.95S
ROLLA          MOCLDY    46  32  57 NW20G31   30.06R
 ***** THE ABOVE OBSERVATIONS ARE NON NWS ARE NOT QUALITY
       CONTROLLED AND MAY MIS-REPORT RAIN FOR SNOW...
$$

  *****  WEATHER ACROSS NORTHERN MINNESOTA  *****

CITY           SKY/WX    TMP DP  RH WIND       PRES   REMARKS
FLAG ISLAND    LGT RAIN  45  34  65 NW22G29   29.90R
WARROAD        PTSUNNY   46  30  53 N14G23    29.93R
ROSEAU         FAIR      46  32  57 NW16G24   29.93R
HALLOCK        FAIR      46  28  49 N26G33    29.98R
THF RVR FALLS  FAIR      47  29  49 NW26G36   29.95R
BAUDETTE       CLOUDY    45  33  63 NW23G35   29.89R
WASKISH        CLOUDY    46  36  66 NW13G23   29.88R
CROOKSTON      FAIR      52  34  50 N22G28    29.96R
STEPHEN NDAWN    N/A     46  28  49 N20         N/A
GREENBUSH NDAW   N/A     45  28  53 NW22        N/A
$$
  *****  WEATHER ACROSS CENTRAL AND WEST MINNESOTA  *****

CITY           SKY/WX    TMP DP  RH WIND       PRES   REMARKS
FOSSTON        FAIR      48  32  53 NW20G26   29.94R
BEMIDJI        FAIR      47  29  48 NW21G28   29.90R
PARK RAPIDS    FAIR      50  27  40 NW24G36   29.89R
ELBOW LAKE     FAIR      53  31  44 W23G33    29.94R
WADENA         FAIR      48  28  46 NW21G33   29.90R
DETROIT LAKES  FAIR      50  32  50 N18G28    29.94R
MOORHEAD       FAIR      55  28  35 NW21      29.95R
FERGUS FALLS   FAIR      54  30  40 N18G33    29.94R
MORRIS MN      FAIR      55  28  35 N24G41    29.93S
STAPLES        PTSUNNY   46  25  42 NW13G20   29.88F
$$
  *****  WEATHER ELSEWHERE ACROSS MINNESOTA  *****

CITY           SKY/WX    TMP DP  RH WIND       PRES   REMARKS
DULUTH         FAIR      51  41  68 NW22G32   29.72R
INTRNTL FALLS  CLOUDY    44  39  82 NW15G23   29.82R
ELY            CLOUDY    50  43  76 NW8       29.72R
CLOQUET        CLOUDY    50  39  66 NW13G23   29.75R
WHEATON        FAIR      55  27  33 NW20G30   29.97R
BRAINERD       CLOUDY    47  32  56 NW21G37   29.86R
HIBBING        CLOUDY    45  42  89 NW15G23   29.76R FOG
ALEXANDRIA     CLOUDY    51  31  46 NW18G29   29.93R
SAINT CLOUD    CLOUDY    49  36  61 NW20G32   29.84R
MINNEAPOLIS    CLOUDY    52  41  66 NW24G32   29.80R
$$

  *****  WEATHER ACROSS SOUTH DAKOTA  *****

CITY           SKY/WX    TMP DP  RH WIND       PRES   REMARKS
SIOUX FALLS    PTSUNNY   56  31  38 NW29G39   30.02R
BROOKINGS      PTSUNNY   52  29  41 NW22G31   29.99R
WATERTOWN      FAIR      53  31  42 NW26G37   29.99R
HURON          FAIR      56  32  40 NW29G37   30.06S
SISSETON         N/A     57  30  35 NW29G41   29.96R
ABERDEEN       FAIR      57  32  38 NW29G39   30.04S
MITCHELL       PTSUNNY   58  29  33 NW24G39   30.09S
PIERRE         FAIR      57  34  41 N24G32    30.15S
MOBRIDGE       LGT RAIN  56  34  43 NW26G36     N/A
RAPID CITY     FAIR      58  17  20 NW33G48   30.32R
$$

  *****  SOME WEATHER IN NEARBY STATES *****

CITY           SKY/WX    TMP DP  RH WIND       PRES   REMARKS
GLASGOW MT     PTSUNNY   59  25  27 N26G32    30.37R
GREAT FALLS MT FAIR      56  16  20 W15G25    30.52S
CHEYENNE WY    FAIR      51  18  27 N16G29    30.40S
SCOTTSBLUFF NE FAIR      56  17  21 NW32G39   30.37F
OMAHA NE       PTSUNNY   61  32  33 NW26G39   29.98R
DES MOINES IA  CLOUDY    61  35  37 NW20G36   29.86R
DAVENPORT IA   FAIR      59  44  57 NW9       29.77R
CHICAGO IL     CLOUDY    54  47  77 NW8       29.69S
EAU CLAIRE WI  CLOUDY    59  40  49 NW14      29.69F
LA CROSSE WI   PTSUNNY   56  47  71 CALM      29.72F
$$

  *****  SOME NATIONAL WEATHER *****

CITY           SKY/WX    TMP DP  RH WIND       PRES   REMARKS
LA GUARDIA NY  PTSUNNY   72  61  68 SE13G20   30.13F
RALEIGH NC     CLOUDY    74  59  59 SE13G21   29.91F
ATLANTA GA     FAIR      71  52  50 W14       29.88R
NEW ORLEANS LA FAIR      74  48  39 N12       30.00F
OKLAHOMA CITY  FAIR      71  42  35 N20G29    30.11R
ALBUQUERQUE NM FAIR      75  24  15 N20       30.32F
SALT LAKE CITY PTSUNNY   64  36  35 NW10      30.58F
LOS ANGELES CA FAIR      99  48  17 W13       30.01F HX  95
BOISE ID       FAIR      58  40  51 NW9       30.65F
SEATTLE WA     PTSUNNY   64  43  46 E5        30.63F
$$

*** WEATHER ACROSS MANITOBA...SASKATCHEWAN AND ONTARIO ***
                ***ONTARIO***

CITY           SKY/WX    TMP DP  RH WIND       PRES   REMARKS
GERALDTON      PTSUNNY   55  39  54 S12       29.73S
THUNDER BAY    MOSUNNY   59  45  58 E8        29.66S
SIOUX LOOKOUT  LGT RAIN  41  41 100 NW8G17    29.77R FOG
TORONTO        LGT RAIN  63  57  82 E9        29.79F
BIG TROUT LK   CLOUDY    41  32  70 NW15      29.84R
PICKLE LAKE    LGT RAIN  48  37  66 N8        29.75R
DRYDEN         LGT RAIN  41  37  87 NW12G20   29.80R
KENORA         PTSUNNY   41  30  65 NW14G23   29.88R
$$
                *** MANITOBA***

CITY           SKY/WX    TMP DP  RH WIND       PRES   REMARKS
BRANDON        MOSUNNY   50  27  40 NW23G29   30.06R
DAUPHIN        SUNNY     46  30  53 N13       30.10R
ISLAND LAKE    FLURRIES  36  30  80 NW14G25   29.94R
PILOT MOUND      N/A     46  34  61 NW18G28     N/A
THE PAS        MOSUNNY   41  28  60 W17       30.11R
THOMPSON       PTSUNNY   36  27  69 NW13      30.01R
WINNIPEG       PTSUNNY   41  28  60 N22G28    30.02R
LYNN LAKE      CLOUDY    34  28  80 NW10G21   30.03R
CHURCHILL      PTSUNNY   27  21  80 NW29G44   29.80R WCI  11
GILLAM         PTSUNNY   32  25  74 NW14G23   29.92R WCI  22
$$
                ***SASKATCHEWAN***

CITY           SKY/WX    TMP DP  RH WIND       PRES   REMARKS
ESTEVAN        MOSUNNY   52  32  46 NW32G41   30.20R
KINDERSLEY     MOSUNNY   54  27  35 NW16G26   30.34R
LLOYDMINSTER   MOSUNNY   52  30  43 NW20      30.29R
PRINCE ALBERT  MOSUNNY   48  34  57 NW17G25   30.23R
REGINA         MOSUNNY   54  28  37 NW25G38   30.25R
YORKTON        SUNNY     48  32  53 NW21G28   30.15R
N. BATTLEFORD  SUNNY     52  32  46 W21G26    30.29R
LA RONGE       PTSUNNY   39  32  75 W14       30.19R
SASKATOON      MOSUNNY   52  34  50 W18G30    30.26R
SWIFT CURRENT  SUNNY     52  28  40 NW24G32   30.35R
$$
NOTE: THESE ARE AUTOMATED STATIONS WITH LIMITED QUALITY CONTROL
      "FAIR" INDICATES FEW OR NO CLOUDS BELOW 12,000 FEET WITH NO
      SIGNIFICANT WEATHER AND/OR OBSTRUCTIONS TO VISIBILITY.
      SKY/WX - SKY CONDITION AND SIGNIFICANT WEATHER.
      TMP - AIR TEMPERATURE.    DP   - DEWPOINT TEMPERATURE.
      RH  - RELATIVE HUMIDITY.  PRES - PRESSURE.
      HX  - HEAT INDEX.         WCI  - WIND CHILL INDEX.
$



USA.gov is the U.S. government's official web portal to all federal, state and local government web resources and services.